Theta_e
304 304 304 304 304 305 305 305 306 305 303 300 298 300 292 289 284 298 302 305 300 293 285 289 286 286 288 292 291 292 291 291 293 291 294 292 294 294 291 292 291 293 292 292 289 288 284 286 283 287 288 289 291 291 293 294 294 293 288 291 292 308 285 283 284 285 288 292 293 293 294 293 290 292 290 288 286 285 283 280 282 283 287 285 283 284 288
303 303 303 304 304 304 304 305 305 305 304 299 299 296 293 292 290 294 303 305 301 291 281 282 283 287 290 292 292 295 292 292 291 291 293 292 293 293 293 294 295 291 295 292 289 291 281 287 287 286 289 287 294 293 292 294 292 292 289 289 294 287 285 286 280 280 283 288 288 290 291 293 287 284 289 289 287 290 288 288 287 286 288 289 285 281 285
303 304 304 304 304 304 304 305 305 305 305 304 297 290 293 293 296 295 297 302 299 288 290 287 285 288 289 290 289 291 292 294 293 293 291 294 293 293 291 294 294 293 294 292 292 292 290 286 289 290 290 291 295 294 293 295 292 295 297 307 297 289 285 284 279 277 275 278 278 277 280 284 286 290 290 291 290 289 286 283 282 281 287 290 284 283 290
304 304 303 303 303 304 305 305 305 305 304 304 297 293 292 292 282 290 293 296 296 294 295 292 289 287 287 286 289 292 290 294 296 296 294 295 295 294 293 295 295 293 293 290 292 292 294 289 288 287 289 291 293 294 294 294 294 301 309 306 296 288 289 286 282 281 278 278 280 286 287 286 285 288 289 290 291 290 287 283 282 282 287 285 289 290 289
303 303 304 304 304 304 304 305 305 305 305 305 300 296 293 294 284 284 284 292 292 290 291 290 290 285 292 284 291 288 290 292 293 299 290 297 295 294 294 295 293 291 292 288 290 292 291 295 292 289 292 293 293 295 294 294 298 309 307 306 292 286 286 288 286 286 286 287 290 294 289 288 287 288 289 289 289 290 288 284 283 287 288 282 290 293 290
303 303 303 303 304 304 305 305 305 305 305 305 302 293 296 287 291 294 293 286 283 284 285 290 289 290 290 287 291 288 289 290 288 295 300 300 300 293 294 296 297 296 295 293 285 289 290 292 290 296 297 293 295 291 293 293 301 309 302 300 293 285 282 290 292 292 295 295 295 295 295 294 293 293 291 287 288 288 287 284 288 291 286 285 291 293 291
303 303 303 303 303 304 304 305 305 305 304 304 299 292 297 296 294 295 299 287 291 288 290 294 292 290 292 287 290 287 288 287 292 293 293 297 294 297 283 290 295 297 297 291 287 289 283 285 293 295 293 294 292 290 293 296 300 301 297 295 291 288 285 292 294 293 294 293 294 295 294 293 293 292 293 292 291 288 289 290 291 290 287 292 293 293 292
303 303 303 303 304 304 305 305 305 305 304 302 298 297 293 292 291 289 295 294 290 290 290 291 290 286 291 285 287 291 290 289 292 294 293 287 294 298 292 294 296 297 297 294 288 292 292 293 289 296 292 291 295 292 293 291 295 294 293 296 294 290 284 293 288 286 290 292 293 294 293 293 290 291 291 291 292 292 292 292 293 294 293 293 293 292 291
303 303 303 303 304 304 305 305 306 305 304 298 298 299 301 301 302 301 294 289 289 291 289 289 287 285 286 286 289 292 291 290 293 292 296 293 292 295 293 297 295 297 296 295 294 297 296 296 296 298 296 292 298 293 295 298 293 294 294 294 293 292 288 290 285 283 284 291 291 291 292 291 289 289 290 290 288 289 289 290 293 293 291 292 292 289 289
303 303 303 304 304 304 305 305 306 305 304 299 299 296 305 304 306 304 298 288 293 290 293 292 290 284 290 293 292 290 290 293 294 286 292 297 298 298 299 298 295 293 293 294 297 299 299 300 301 300 301 302 301 302 301 300 296 292 293 294 290 288 288 282 283 284 282 290 290 289 287 288 285 283 289 290 288 290 291 292 294 295 295 291 288 289 295
303 303 303 303 304 304 305 305 306 306 305 299 298 298 301 299 298 300 300 288 287 291 290 289 287 291 294 295 292 293 292 293 293 287 285 297 300 300 302 298 293 289 293 298 303 303 302 300 301 301 302 302 301 301 301 302 301 298 295 290 290 290 292 286 285 283 281 286 287 286 283 277 281 290 293 292 289 289 290 289 292 292 294 292 295 295 297
303 303 303 303 304 304 305 305 306 307 305 303 303 299 301 303 302 300 292 286 286 293 291 288 289 292 292 294 294 292 291 291 292 295 291 294 297 301 301 298 293 288 299 304 305 304 304 303 303 301 301 300 300 300 300 299 300 300 299 293 290 289 288 283 282 283 283 281 283 283 279 280 290 294 293 293 292 291 290 289 290 291 294 295 294 295 296
303 303 303 304 304 304 305 305 306 306 306 306 304 298 303 305 299 297 295 292 287 291 289 292 296 296 295 294 294 294 295 295 296 296 296 295 297 301 302 299 296 298 305 304 303 301 296 293 293 295 296 297 297 298 298 297 298 300 300 298 291 286 287 282 283 281 281 281 281 280 279 289 294 292 293 294 294 293 294 290 290 290 292 295 294 295 296
303 303 303 304 304 304 305 305 306 307 307 306 302 301 301 302 298 298 296 289 288 293 295 293 294 294 295 294 294 294 296 295 295 296 294 299 298 299 303 303 303 304 304 305 299 295 289 289 285 287 290 290 289 288 294 296 297 297 298 298 296 292 287 286 284 284 282 282 282 282 288 290 290 288 289 290 288 290 289 286 285 289 290 295 294 295 295
303 303 303 303 304 304 304 305 306 306 307 307 305 302 301 302 302 300 301 296 286 290 293 286 293 295 295 296 298 294 292 291 291 289 295 300 300 302 302 304 304 305 305 299 293 293 288 286 284 283 285 284 282 282 291 288 295 297 297 296 296 294 289 287 285 281 282 283 282 284 284 281 286 292 295 297 296 295 293 289 285 293 293 295 296 294 294
302 303 303 303 304 304 305 305 305 306 307 307 304 301 301 302 303 303 300 295 292 286 288 296 299 298 297 297 298 295 289 286 289 290 291 294 298 299 301 302 304 304 303 300 294 288 286 285 284 282 282 282 284 287 282 290 288 294 296 296 295 294 292 288 286 282 281 280 281 281 280 283 289 292 294 296 296 296 296 289 284 291 293 296 296 294 293
302 303 303 303 304 304 305 305 305 306 306 306 301 300 300 304 302 301 299 299 297 289 298 300 300 301 297 292 295 291 293 288 291 285 284 285 294 298 299 301 303 304 302 295 292 285 286 286 285 283 282 290 285 283 289 287 284 286 294 294 293 290 285 286 285 281 281 282 280 278 281 281 287 294 295 296 298 297 292 281 283 291 294 296 296 294 293
302 302 303 303 304 304 305 305 305 306 306 306 303 300 301 306 306 305 302 299 292 293 299 302 300 297 296 296 295 299 301 298 295 294 289 292 295 296 297 299 297 300 302 290 288 284 284 283 283 283 284 292 293 291 281 286 283 284 286 285 284 285 285 285 284 283 283 283 280 282 283 288 292 295 297 296 297 292 282 280 284 293 295 296 296 295 294
302 302 302 303 303 304 304 305 305 306 306 306 304 302 301 303 305 307 303 299 297 289 299 305 306 300 302 306 303 303 302 300 296 286 283 285 292 297 299 299 299 290 296 288 287 284 283 284 288 286 283 287 292 283 290 285 282 290 288 284 284 284 283 284 285 284 283 279 282 283 284 288 295 297 298 298 293 283 282 286 294 295 295 296 296 294 294
302 302 302 303 303 304 304 305 305 306 306 306 304 299 301 303 306 306 303 297 295 296 301 302 303 301 303 301 297 298 298 299 297 291 288 286 295 297 289 288 291 293 289 287 284 287 282 283 283 288 282 283 288 293 286 289 294 287 285 288 284 286 283 283 283 282 281 278 279 280 280 288 298 297 296 297 287 285 288 292 295 297 296 295 294 294 294
301 302 302 303 303 304 304 305 306 306 306 306 305 300 299 303 303 305 308 303 298 293 295 304 307 306 305 302 303 302 298 295 297 296 297 295 297 291 285 285 288 290 288 283 284 284 284 284 287 285 287 286 289 289 285 285 289 295 294 290 288 291 284 282 282 284 283 279 279 281 285 290 298 297 289 293 291 293 295 295 293 295 295 294 293 293 294
301 301 302 303 303 304 305 305 306 306 306 306 305 300 297 302 307 309 308 307 299 293 295 305 308 308 309 304 303 304 303 303 304 304 299 293 296 295 291 295 295 294 295 294 288 286 289 286 290 287 285 287 289 283 287 281 282 287 294 292 285 290 286 285 285 285 282 281 282 287 291 293 294 294 292 293 295 296 296 296 295 294 294 295 294 293 294
301 301 302 303 303 304 304 305 305 306 306 306 303 296 295 298 300 309 309 302 304 304 305 306 307 301 302 302 303 306 307 307 307 307 304 296 290 295 297 297 296 302 299 294 288 287 287 288 285 289 287 287 285 285 287 282 281 288 284 292 289 294 293 290 289 286 290 291 290 292 292 293 294 295 295 295 295 295 296 295 294 293 295 295 294 294 294
300 301 301 302 303 303 304 305 305 306 306 306 304 297 296 299 302 302 305 303 296 291 293 294 291 287 294 297 300 302 302 301 305 310 309 301 290 288 293 297 301 300 294 296 296 294 288 287 289 290 284 289 290 282 282 283 283 288 285 285 288 293 294 289 287 290 287 283 290 291 291 292 294 293 294 295 295 295 295 295 295 295 295 295 296 295 295
300 301 301 302 303 303 304 304 305 305 305 305 305 302 301 300 302 304 300 290 286 288 287 288 287 297 300 300 299 299 301 303 304 305 305 303 298 294 294 299 301 297 295 297 295 289 284 286 288 285 283 289 291 285 287 286 286 288 283 285 285 287 293 289 288 287 283 286 290 291 293 293 294 295 293 293 294 295 295 296 296 296 296 296 296 296 295
300 300 301 301 302 303 304 304 305 305 305 305 305 298 296 298 303 304 300 300 297 293 289 285 289 300 302 300 298 300 303 302 302 302 303 305 304 302 301 301 299 300 300 298 293 288 285 284 284 285 286 289 293 285 285 288 289 289 287 286 287 289 291 284 287 285 289 293 293 293 293 293 293 294 294 294 295 295 295 296 296 296 295 295 296 297 296
300 300 300 301 302 303 304 304 304 304 304 305 303 299 299 300 305 301 299 298 295 286 285 284 288 299 303 300 300 300 302 301 301 300 301 302 302 300 299 298 297 295 295 291 291 286 285 284 284 287 288 290 291 289 290 288 287 282 284 290 292 290 284 289 290 287 287 288 290 293 288 286 291 293 294 294 295 295 295 295 295 295 295 295 295 296 297
300 300 301 301 302 303 303 304 304 304 304 305 303 300 301 302 305 302 302 301 296 287 287 285 288 296 301 298 302 299 301 301 300 299 299 299 300 299 298 296 295 295 291 286 287 287 282 286 288 285 286 288 286 288 289 288 286 285 286 288 291 289 290 289 287 287 287 290 294 293 293 293 293 294 294 295 296 296 295 294 294 294 295 296 295 295 295
300 300 301 301 302 303 303 304 304 304 304 304 300 301 304 307 302 303 303 304 302 297 292 289 291 292 288 293 300 297 299 301 301 298 298 298 298 297 297 296 295 294 290 286 284 283 284 288 285 288 289 293 288 286 283 283 279 282 286 290 291 291 295 293 292 291 291 294 293 294 295 292 293 295 295 296 297 296 295 296 296 296 295 295 295 295 295
300 301 301 302 302 303 303 304 304 304 304 300 298 292 286 294 301 300 302 303 301 300 292 288 286 287 294 298 296 297 298 300 300 299 297 296 296 295 296 295 294 294 292 288 284 286 287 287 284 288 296 293 288 283 280 281 280 285 288 290 293 294 293 293 296 294 292 294 294 294 295 295 296 296 296 296 297 297 295 295 295 295 295 295 295 295 296
300 301 302 302 302 303 304 304 304 304 303 297 295 285 285 284 292 303 303 301 300 299 289 288 289 286 287 294 297 295 297 297 298 298 299 297 296 296 296 295 293 292 286 284 285 287 285 286 285 289 292 292 285 281 282 278 280 283 289 291 292 293 293 293 293 295 296 295 296 296 296 296 296 296 296 296 296 297 296 296 297 297 296 296 295 295 296
301 301 301 302 302 303 303 304 304 304 300 295 291 291 290 292 295 302 303 302 301 301 292 288 284 283 284 286 294 298 297 301 302 297 292 296 296 296 295 295 292 293 291 287 286 284 286 285 284 288 289 292 287 282 280 280 281 283 289 289 291 292 293 294 295 295 296 297 296 294 293 293 295 294 293 295 296 297 297 297 297 297 298 297 296 296 295
300 301 301 301 302 303 303 304 304 303 299 301 303 304 304 304 304 304 304 300 301 294 292 285 284 284 283 287 295 297 300 294 293 293 292 293 296 293 290 293 291 290 297 288 285 285 287 284 282 284 290 288 283 283 281 279 283 288 290 291 292 293 293 294 295 296 296 297 297 292 291 292 293 295 295 296 296 297 297 297 297 298 297 296 294 293 292
300 301 301 301 302 303 304 304 304 304 303 299 295 297 304 306 305 305 300 300 298 294 289 285 283 283 283 287 291 292 297 290 289 289 286 289 295 290 288 288 288 287 289 287 287 286 286 283 285 285 283 286 281 282 281 285 289 290 291 291 292 293 294 294 294 294 293 293 294 296 295 294 294 296 296 296 296 298 298 298 297 296 295 294 292 291 290
300 300 301 302 303 304 304 304 299 297 293 294 296 298 302 307 304 305 304 300 289 285 286 287 284 282 281 281 281 286 296 289 288 287 285 287 293 293 289 286 284 284 287 291 285 285 284 287 287 282 286 282 281 283 280 287 290 290 291 291 292 293 294 293 291 293 294 295 295 294 294 295 295 294 295 295 296 296 296 296 297 296 294 292 291 290 290
299 300 301 303 303 303 299 302 297 295 293 293 293 302 306 307 306 302 299 302 296 289 285 283 285 283 282 280 282 287 294 289 289 290 290 285 285 291 289 284 284 287 290 286 285 284 286 289 285 284 279 280 281 281 287 291 291 291 292 292 293 294 293 293 293 294 295 296 295 294 294 294 294 294 295 296 295 294 295 295 295 294 292 291 291 291 290
299 300 302 303 301 297 293 290 297 298 298 301 303 306 306 307 305 305 302 301 302 300 291 283 285 284 286 283 282 284 288 282 285 286 283 284 285 283 283 282 283 284 284 282 282 284 288 290 284 281 281 280 282 287 291 292 292 292 291 293 293 294 294 294 295 296 295 295 295 294 294 293 293 295 296 295 293 292 293 293 292 291 291 290 291 290 290
299 301 298 296 291 286 285 290 298 301 304 303 305 299 292 294 287 284 288 288 290 300 289 290 285 286 288 288 284 288 289 283 285 284 282 283 283 283 282 283 284 284 281 283 286 290 284 282 281 281 283 287 288 291 292 292 292 292 293 293 293 294 295 295 296 295 293 292 292 293 293 293 293 295 295 293 292 291 292 292 291 292 292 291 291 290 289
298 295 294 294 291 286 287 295 301 303 300 301 298 288 285 286 285 284 284 286 286 288 285 289 284 285 287 285 283 289 291 286 282 280 282 284 283 280 282 282 284 282 280 280 283 286 283 282 279 279 282 287 288 290 292 293 293 293 293 293 294 294 296 296 297 295 294 293 294 295 294 293 293 294 294 293 291 291 291 291 291 292 292 291 290 290 290
290 288 286 287 286 288 296 299 301 298 298 290 287 285 284 285 284 281 283 284 283 283 283 284 285 286 288 287 286 286 290 289 284 284 281 282 287 282 282 282 283 280 277 276 280 283 280 279 280 278 280 283 287 290 291 293 293 292 293 293 295 295 296 296 296 296 295 294 295 295 295 295 295 294 294 293 292 291 290 290 291 291 291 291 291 290 290
287 286 285 284 289 291 293 295 296 296 289 284 284 283 282 282 283 284 284 281 281 282 284 284 286 287 287 289 285 284 288 292 287 287 281 282 286 284 280 279 282 279 277 278 282 283 280 278 278 277 282 285 289 291 292 292 293 292 292 294 295 295 295 295 295 296 296 295 295 294 295 295 294 294 293 292 292 290 290 291 291 291 291 291 290 291 291
288 287 288 291 292 293 294 293 290 285 285 286 282 279 281 280 283 284 283 281 280 281 284 287 284 285 287 289 288 289 288 293 288 283 283 282 284 283 280 280 281 277 276 279 281 281 279 276 277 277 280 288 291 292 292 292 292 292 292 293 294 295 295 295 295 295 296 296 295 295 294 294 294 293 293 292 291 291 291 291 291 291 291 292 292 292 292
298 297 296 293 292 287 288 285 285 284 280 280 276 277 279 280 281 282 281 283 284 285 284 291 288 290 293 292 290 291 288 292 287 285 282 281 282 282 279 278 277 276 278 281 279 277 276 274 275 278 286 290 292 292 293 293 293 293 293 294 294 295 295 295 295 295 295 295 295 294 294 294 294 293 292 292 291 290 291 291 291 291 292 292 292 292 292
293 295 293 290 289 288 285 279 285 284 280 281 278 277 278 279 280 281 282 280 281 283 285 288 285 288 285 285 287 285 286 288 286 284 283 282 281 278 278 277 276 278 281 279 277 275 273 274 278 281 288 292 293 292 293 293 293 293 293 294 295 295 295 295 294 294 294 294 294 294 293 293 293 292 292 292 292 291 291 291 291 292 292 292 292 291 291
287 285 287 284 281 283 281 273 282 280 277 278 281 279 280 277 277 278 281 284 286 284 286 288 288 288 283 286 287 287 286 285 285 283 281 282 279 279 277 277 279 280 278 275 275 274 277 277 284 286 289 291 292 293 294 294 294 294 293 293 294 294 294 294 294 294 293 293 293 293 293 293 293 291 291 292 292 293 292 291 291 292 292 292 292 290 291
285 285 283 278 275 277 279 276 279 278 280 282 280 279 280 281 281 283 286 288 287 288 287 288 288 288 286 286 285 285 283 283 283 282 282 281 277 278 279 281 280 277 275 274 274 272 272 275 281 288 291 293 293 293 294 295 295 295 294 293 294 294 294 294 294 294 293 293 292 293 292 292 292 291 291 291 292 292 292 292 292 293 292 292 290 290 291
285 286 286 283 278 280 281 278 277 279 281 282 280 282 284 285 286 287 286 288 289 289 288 290 289 289 286 284 286 285 284 283 281 282 281 279 278 279 282 280 277 274 273 271 271 270 274 278 284 290 291 292 292 293 294 294 295 294 294 294 294 294 294 294 294 294 294 293 292 292 291 291 291 291 291 291 291 292 292 292 292 293 293 292 291 291 292
282 284 285 277 275 279 280 279 280 280 281 284 283 284 286 286 285 286 288 288 289 289 289 290 287 287 287 285 285 282 283 283 282 282 282 281 281 278 275 274 274 275 275 273 270 273 275 278 286 290 292 293 293 293 294 294 294 294 293 293 294 294 293 293 293 293 293 292 292 292 291 291 291 291 291 291 291 291 292 293 292 292 293 292 291 292 292
285 283 282 280 283 283 281 281 281 280 281 282 283 284 284 284 284 286 288 287 288 290 292 290 286 286 285 284 283 284 283 283 280 280 282 279 276 273 273 271 272 272 273 276 276 276 277 283 289 291 292 292 293 294 294 295 295 294 293 293 294 294 293 293 293 293 293 293 292 292 292 291 291 291 291 291 291 291 292 293 292 292 292 291 292 292 292
284 282 283 283 282 282 282 281 281 279 280 282 283 283 283 282 284 287 289 288 291 291 290 289 288 286 287 284 282 280 281 282 282 282 279 277 276 277 275 273 272 273 272 275 277 278 281 285 290 291 293 293 293 294 293 293 293 294 294 294 294 294 293 293 293 293 293 293 292 292 292 291 291 291 291 291 292 292 291 292 292 292 291 291 292 292 292
284 283 281 281 282 280 281 278 277 279 282 282 282 283 283 283 285 286 290 291 291 287 287 287 285 285 284 282 279 279 280 283 282 279 278 276 279 277 275 273 272 276 280 281 283 284 285 288 292 292 293 293 293 294 294 294 294 294 294 294 294 294 293 293 293 293 293 293 292 290 292 292 292 292 292 292 292 291 291 291 292 293 292 291 292 293 293
281 280 279 281 282 282 282 282 282 282 283 284 283 283 285 285 287 289 293 291 288 287 283 284 286 283 281 280 281 282 283 282 280 280 279 280 280 278 275 277 281 281 283 284 285 285 287 290 292 293 294 294 294 295 295 294 294 294 294 294 294 294 293 293 293 293 293 293 292 292 293 292 292 292 292 291 291 291 291 290 291 292 292 291 291 293 294
Wind_Speed
18 18 17 16 15 14 14 14 13 10 10 2 2 1 2 2 2 5 6 3 3 4 1 1 2 4 4 5 10 11 9 7 9 10 5 5 2 2 3 4 1 3 2 1 1 0 2 8 5 4 8 10 16 6 15 12 14 6 3 4 5 4 1 4 2 3 3 4 2 4 6 5 2 1 2 5 3 5 5 5 5 6 4 4 1 2 1
18 18 18 17 16 14 14 13 12 10 6 1 4 2 1 1 2 4 0 4 5 2 2 1 2 4 7 7 8 8 9 10 9 7 7 1 3 2 2 3 4 3 2 2 2 1 1 8 9 5 5 6 15 10 11 16 11 10 6 7 5 5 2 6 2 1 1 1 3 1 2 3 3 3 2 3 4 3 3 2 1 6 8 9 9 6 3
18 18 17 16 16 14 12 11 10 8 7 4 0 1 1 2 1 2 2 3 3 4 2 2 3 6 7 6 9 7 5 4 8 7 8 4 3 1 3 3 3 4 3 3 3 2 3 1 8 4 7 7 8 15 11 16 10 10 6 8 6 4 3 5 5 8 8 10 9 8 5 7 1 3 5 3 6 3 3 3 1 4 2 7 5 3 1
17 17 17 16 16 14 12 10 7 5 4 3 3 1 0 1 2 0 0 0 0 4 5 6 5 7 7 5 6 5 6 6 6 7 5 5 5 4 6 9 4 3 2 2 0 1 1 3 1 4 4 5 5 10 14 15 10 11 10 8 6 3 2 2 6 8 7 5 3 4 4 3 5 1 5 2 3 5 6 4 5 7 5 4 1 13 13
18 18 17 16 16 15 13 11 10 7 4 2 1 2 1 1 2 2 1 1 5 6 3 4 4 4 2 2 3 5 7 8 8 4 1 4 3 2 4 1 4 4 4 2 1 2 2 1 3 4 5 6 6 12 14 12 14 12 9 8 6 4 3 1 6 4 6 6 1 1 5 2 1 3 4 6 5 5 4 4 7 7 11 1 2 18 20
18 19 19 17 16 15 13 11 10 7 5 4 1 1 2 1 2 1 3 2 3 3 6 7 8 9 6 5 1 5 8 7 4 3 3 5 2 0 5 1 4 6 2 1 1 4 2 2 2 7 2 1 2 4 6 9 13 10 4 4 6 5 4 1 6 4 5 1 0 6 9 5 4 9 7 3 7 7 5 5 4 10 8 9 13 14 18
18 19 19 18 18 16 14 12 11 7 6 1 2 1 2 3 2 3 1 1 2 5 4 3 5 7 6 2 2 3 4 7 4 1 3 3 4 0 1 3 8 8 7 4 1 2 3 4 3 3 5 4 3 5 3 2 4 7 4 1 2 7 1 2 8 8 10 6 6 9 14 5 11 11 9 9 1 5 7 3 3 1 2 14 20 12 9
18 19 19 19 18 17 16 15 10 7 7 1 2 3 1 0 1 2 2 2 4 2 2 2 1 1 3 3 3 2 2 5 5 3 2 1 4 4 2 2 5 6 7 4 3 1 1 0 2 4 2 3 4 2 2 4 4 2 6 3 2 7 1 5 2 5 5 5 6 10 11 10 8 7 11 11 6 10 6 8 10 18 12 14 18 17 12
19 20 20 20 19 17 17 15 12 8 4 0 3 2 4 2 2 1 4 3 3 1 2 2 1 1 3 1 4 2 2 3 3 6 5 5 3 2 2 0 3 2 3 4 2 1 0 0 1 2 3 8 3 2 3 1 2 4 1 2 1 6 2 2 4 6 2 3 5 7 12 13 10 7 11 11 8 8 3 9 5 10 13 15 16 14 9
20 20 19 19 18 17 17 16 13 9 1 1 2 3 1 2 2 2 1 2 3 4 3 3 1 2 3 2 1 1 5 8 6 4 5 5 8 3 4 3 1 2 2 3 1 4 2 1 2 4 4 7 7 9 8 11 4 1 2 0 3 2 6 3 5 8 0 3 2 3 6 7 5 5 6 5 3 0 4 4 3 12 24 15 12 13 13
20 19 20 19 19 18 17 16 13 9 2 1 2 3 3 2 4 3 2 0 3 1 3 3 1 3 3 4 6 5 6 9 4 3 3 2 2 3 3 2 1 1 1 2 3 3 4 4 3 3 8 12 13 12 15 17 13 7 1 2 2 2 9 4 1 6 3 3 3 1 5 2 2 3 4 2 2 3 7 7 10 4 2 4 5 14 15
21 21 20 20 19 18 17 17 14 12 2 2 1 3 2 3 3 3 1 1 3 2 3 5 5 4 5 9 5 6 8 9 8 4 4 3 7 5 2 3 2 0 3 3 3 2 2 1 3 1 6 9 15 17 18 16 13 9 6 4 5 5 7 3 2 7 3 2 2 6 3 3 2 5 4 6 9 5 10 12 9 3 8 15 18 17 17
21 22 22 21 21 18 18 16 15 13 9 2 4 5 2 3 2 3 3 2 3 2 3 5 6 8 9 9 8 6 9 10 11 11 9 7 6 3 2 2 3 3 1 2 3 6 4 1 2 1 5 8 6 13 17 15 14 13 10 7 6 5 8 4 5 2 2 3 2 4 2 2 2 3 2 7 8 2 12 10 7 6 3 13 17 17 17
22 21 22 22 21 20 18 17 16 14 11 5 3 4 1 1 3 3 2 2 5 2 2 6 7 6 4 5 4 6 3 3 2 3 2 2 4 3 1 3 5 2 3 1 5 3 3 6 4 7 8 7 5 6 4 4 10 12 12 9 6 8 5 5 5 2 5 2 4 3 0 1 2 2 2 3 4 3 3 8 2 3 2 13 15 16 15
22 22 22 22 22 21 19 18 16 15 13 7 4 3 3 2 3 3 3 2 3 7 3 2 4 6 4 5 3 4 3 3 6 4 4 3 2 3 3 2 2 2 1 1 2 5 3 3 5 4 3 3 1 1 2 3 3 7 6 5 7 2 6 4 8 1 4 7 5 3 0 4 7 7 3 1 0 2 4 5 1 3 4 5 18 18 17
23 23 22 22 22 21 20 18 16 14 13 7 2 3 4 4 3 4 4 3 2 4 4 5 5 5 5 4 3 1 2 2 2 2 5 3 2 4 2 3 1 2 2 3 2 4 3 4 0 2 2 2 1 0 1 2 2 3 5 6 10 10 9 5 8 4 3 3 6 4 6 4 6 12 4 2 4 8 2 6 1 4 3 6 15 18 18
23 23 23 22 23 22 21 19 18 14 12 8 3 3 4 6 6 5 4 3 3 6 7 4 3 4 2 6 4 2 1 0 1 1 2 3 2 1 2 3 3 2 0 4 5 4 3 3 2 2 1 1 2 2 0 1 1 1 4 6 11 10 5 5 6 4 1 5 3 3 2 2 3 7 5 7 7 2 2 1 7 9 8 7 11 18 19
23 23 23 23 22 21 20 19 18 17 14 10 4 3 5 2 7 4 3 4 2 5 5 7 5 2 4 1 2 3 1 0 1 0 1 4 2 3 3 2 3 2 2 3 1 4 2 1 3 2 2 0 1 1 2 2 1 2 1 1 2 4 3 5 7 5 4 6 1 1 3 2 2 7 6 9 6 5 3 8 4 13 14 12 12 14 15
24 23 23 23 22 21 20 19 18 16 15 12 6 6 7 7 6 5 3 3 2 5 11 9 7 4 4 6 1 1 3 2 1 1 3 4 2 2 3 1 1 1 5 2 4 2 2 0 0 2 3 1 1 2 0 1 2 0 2 4 4 3 3 1 4 6 6 2 5 3 3 4 5 3 9 9 6 4 9 5 4 18 15 11 11 13 13
24 24 23 23 23 22 21 19 18 16 16 14 7 5 9 6 5 8 7 4 2 5 11 9 3 9 6 4 5 2 1 5 0 5 1 1 3 4 2 2 4 3 3 3 2 1 3 2 1 1 2 2 1 3 3 0 1 3 1 2 4 5 3 2 4 2 3 2 3 2 1 2 9 9 4 2 4 5 4 4 6 14 15 15 12 12 11
25 25 25 25 24 23 22 21 19 17 16 13 8 5 7 2 6 7 8 4 1 4 9 5 2 12 7 3 3 8 8 6 3 3 6 6 2 3 1 1 2 1 1 1 3 1 2 1 2 1 2 4 2 3 5 3 1 2 2 1 2 1 5 1 2 3 5 3 4 5 5 4 7 11 8 6 4 5 7 11 11 8 11 12 12 10 10
26 25 25 25 25 24 22 21 20 17 17 14 10 2 4 5 2 4 7 6 4 5 7 12 8 9 13 7 3 3 6 6 8 5 3 1 2 2 2 1 0 0 0 2 2 1 1 1 1 1 2 0 2 3 3 4 3 1 1 3 3 3 3 5 6 1 2 3 2 2 2 1 2 3 2 1 3 9 9 12 16 15 9 9 11 13 12
26 25 26 25 25 25 24 23 20 17 15 12 8 1 5 7 6 2 7 4 4 4 6 6 7 5 2 1 1 2 1 3 2 2 3 3 1 1 1 0 2 1 0 1 1 2 2 4 3 4 3 1 6 4 1 2 2 0 1 2 2 1 2 1 7 2 3 4 1 0 3 6 7 5 4 10 7 4 8 11 11 5 10 11 13 12 12
26 26 26 25 25 25 24 24 23 21 16 11 5 3 5 5 5 2 1 1 0 5 7 2 3 5 2 4 6 7 7 5 2 1 1 3 2 2 3 2 1 2 1 2 3 2 2 2 1 3 3 2 5 3 4 1 0 3 3 1 1 2 0 1 6 4 3 1 2 4 4 4 8 9 5 5 5 7 7 8 9 11 11 11 12 11 10
26 26 26 25 25 25 25 25 24 23 20 16 10 5 6 5 4 4 1 1 3 1 1 7 4 4 2 2 2 2 3 1 2 2 3 4 4 3 1 3 2 0 4 4 1 3 2 2 1 2 4 1 5 1 1 6 1 2 4 1 1 1 1 8 3 4 3 4 3 3 4 4 5 9 10 8 8 7 5 7 9 10 10 11 12 12 11
26 26 26 27 26 25 25 25 24 23 21 21 14 4 2 5 5 2 2 0 1 1 0 3 5 8 5 7 3 2 3 6 6 6 3 0 1 1 2 2 3 3 0 1 3 3 2 4 3 1 4 0 2 4 1 1 5 2 6 6 5 3 2 4 3 5 4 7 4 6 7 7 4 4 4 7 9 10 9 10 12 12 13 12 10 9 11
26 26 27 26 26 25 25 24 23 23 23 21 12 2 5 5 6 2 1 2 0 2 3 2 5 8 6 6 4 3 3 4 6 7 8 9 7 6 6 3 2 3 5 3 3 4 4 3 4 3 1 1 3 3 3 4 3 3 2 0 1 6 3 3 9 9 7 8 10 13 11 5 3 4 8 8 8 11 13 13 13 13 13 13 13 11 11
26 26 26 26 26 24 24 24 22 23 22 23 13 6 5 3 1 1 1 2 2 1 2 3 4 8 6 2 4 4 5 4 5 5 6 7 9 8 7 5 4 3 4 2 3 5 3 6 3 1 1 1 5 3 2 2 3 5 4 1 1 5 6 6 8 9 9 5 9 1 5 8 6 9 8 10 10 12 13 13 13 12 11 12 14 13 12
26 26 26 26 25 24 24 23 21 20 21 17 10 6 1 3 1 2 2 4 3 1 1 3 4 3 2 3 3 3 5 4 5 4 5 6 7 7 6 5 4 1 3 4 3 2 3 0 1 2 1 2 6 2 2 3 2 2 1 3 1 3 8 7 7 5 4 6 6 6 10 11 8 8 10 9 10 12 12 12 12 13 12 12 12 12 14
26 26 27 26 25 25 24 22 20 18 16 9 5 2 2 3 3 2 3 6 3 2 1 2 3 2 3 1 4 3 2 3 4 5 6 5 5 5 4 4 4 2 3 2 2 3 0 1 1 1 1 1 2 2 3 1 3 0 3 3 2 4 4 2 5 9 7 4 4 5 10 11 10 10 9 9 10 12 11 11 12 12 11 11 13 11 11
27 27 27 25 25 25 24 23 19 16 10 5 2 2 2 1 2 3 5 6 3 1 1 1 3 3 4 2 0 4 3 1 1 1 2 2 1 1 2 3 3 3 4 4 4 0 1 2 1 3 2 3 4 2 4 3 1 0 2 3 0 6 4 3 3 6 12 9 9 8 10 11 8 9 7 8 9 12 10 9 11 12 12 11 12 11 11
27 27 26 26 26 24 24 22 18 12 5 1 2 3 3 4 3 7 8 6 1 1 0 2 3 3 1 3 2 2 0 0 0 1 2 2 2 4 4 4 1 2 2 1 0 2 2 0 2 2 2 3 6 2 3 4 5 3 1 2 3 4 6 8 8 7 11 14 16 13 10 6 9 12 8 9 9 11 12 11 11 12 14 11 9 9 8
27 27 27 27 27 26 23 20 19 10 6 9 12 15 19 23 22 17 6 1 1 1 1 2 1 1 0 3 3 4 0 2 2 2 1 1 0 1 1 4 4 3 3 5 2 1 1 2 0 4 3 2 3 2 3 1 2 1 2 3 4 7 7 7 8 9 11 13 16 15 13 12 6 8 10 9 10 10 11 12 12 11 11 11 10 9 8
28 27 28 27 26 24 21 19 18 16 9 3 4 2 5 10 7 5 2 1 0 1 1 1 1 1 4 5 2 5 1 1 1 1 1 3 1 2 0 2 3 2 3 3 1 2 2 4 4 0 4 4 2 4 2 1 1 4 4 4 6 7 8 9 9 8 5 4 4 8 10 8 7 9 10 9 9 9 9 9 11 12 11 11 9 8 9
28 29 28 27 24 21 20 13 5 0 2 2 3 5 1 3 6 6 6 0 1 2 2 1 1 1 3 4 0 4 0 3 1 1 3 2 0 2 0 1 4 4 2 1 3 1 1 0 4 5 1 2 4 1 1 5 4 4 5 6 6 9 9 9 4 5 6 7 9 8 9 10 13 11 11 11 11 10 10 10 11 11 11 9 9 10 10
29 29 27 25 26 13 2 1 1 0 0 1 4 8 17 15 8 5 5 3 2 1 0 2 1 1 2 1 1 2 1 1 1 1 0 0 2 1 2 2 2 1 0 2 1 2 1 0 3 1 1 2 3 4 6 9 9 7 8 8 8 10 6 8 7 6 7 9 11 9 9 9 11 10 10 11 9 7 9 10 10 9 9 10 11 11 11
29 28 27 20 6 2 1 2 1 3 1 6 15 21 22 13 1 3 2 0 1 1 2 1 0 4 4 3 1 5 3 0 2 1 3 1 1 2 2 2 1 1 3 3 3 3 2 1 6 2 1 1 2 2 8 9 11 10 7 7 4 6 9 8 8 10 11 11 11 9 9 9 8 8 10 9 7 7 9 10 8 11 13 13 12 12 12
29 24 7 2 2 1 1 1 1 8 16 18 10 3 3 4 0 1 2 1 2 2 1 1 3 4 1 1 2 3 1 3 1 2 1 1 1 1 0 2 1 1 1 0 1 1 1 4 2 2 1 1 1 4 6 5 5 5 6 5 5 6 9 9 10 13 13 11 10 11 10 9 9 8 11 8 7 7 7 6 6 9 10 11 11 11 11
14 5 4 3 1 1 1 2 9 21 14 6 1 0 1 0 1 0 1 1 1 1 2 3 4 5 4 3 5 3 2 1 2 2 2 1 2 1 1 1 2 2 1 1 4 3 2 2 1 2 0 0 3 2 3 6 5 5 5 5 6 6 8 9 10 13 12 10 10 11 11 13 14 12 8 7 5 5 5 6 7 10 11 10 11 11 12
6 8 4 4 1 3 6 7 14 11 2 1 1 2 0 1 2 2 1 1 1 2 1 2 4 4 6 7 5 1 1 1 1 0 1 1 0 1 1 1 0 2 1 1 3 2 4 1 0 2 1 2 3 2 5 7 7 4 4 4 6 7 9 8 7 8 8 6 6 6 5 6 6 6 8 8 7 7 6 7 8 9 11 12 12 12 12
4 3 4 2 5 5 7 10 8 0 0 1 1 1 1 1 1 1 0 0 1 2 2 2 1 1 1 2 3 2 3 2 1 3 3 1 2 2 2 0 1 1 0 0 2 2 2 2 1 3 7 5 6 5 5 5 6 5 4 6 7 8 9 8 7 7 9 8 6 6 6 7 7 6 5 6 6 6 7 8 8 9 12 13 13 12 10
3 3 5 6 7 8 7 3 0 1 0 0 2 1 1 2 1 2 1 2 2 1 2 1 1 1 1 3 2 3 1 1 1 1 1 1 1 1 1 0 1 1 0 2 1 2 2 1 1 2 4 7 6 6 7 7 5 6 4 6 8 8 9 9 8 6 9 9 6 6 6 7 7 7 6 7 7 7 8 8 9 10 14 12 12 9 9
17 13 6 4 3 1 1 1 1 1 1 1 2 1 1 0 2 3 1 1 1 1 3 0 1 1 1 3 2 0 2 1 1 1 2 0 1 1 1 1 1 1 1 1 1 1 1 1 2 7 6 9 9 9 8 9 7 6 6 7 7 8 10 10 9 8 7 8 7 6 6 7 6 6 6 7 7 7 7 7 10 10 11 11 11 11 9
4 2 2 1 1 3 1 0 1 1 1 0 2 2 1 1 3 1 0 2 1 1 2 2 3 3 3 1 3 1 1 2 2 2 1 0 1 0 1 0 1 3 1 1 0 1 3 3 6 6 8 8 8 9 9 8 8 6 6 8 8 8 8 8 7 7 7 6 6 6 6 6 5 5 5 6 9 10 9 8 9 12 11 11 10 10 9
1 1 0 0 0 2 1 2 1 1 2 2 1 2 2 3 3 1 3 4 1 3 3 2 1 1 2 2 2 1 1 1 1 2 1 0 1 0 1 1 1 1 1 1 1 2 1 1 1 2 8 10 11 10 10 9 9 10 9 8 9 9 9 10 9 8 7 7 8 8 8 8 7 6 7 8 9 11 11 10 8 10 10 11 9 7 7
2 0 1 2 3 2 1 1 0 0 2 2 1 4 2 5 3 3 6 1 3 7 7 7 4 0 1 1 5 2 0 2 1 1 1 2 2 1 1 0 1 0 1 0 0 2 4 5 5 9 12 13 13 11 11 10 10 8 10 13 12 11 11 11 9 8 8 7 7 9 9 8 8 8 8 10 10 11 11 11 9 11 10 9 8 8 7
1 1 1 0 0 2 1 1 2 2 0 1 2 3 4 6 6 6 3 2 5 7 5 6 4 7 5 2 1 2 1 1 1 1 2 1 1 0 1 1 1 0 1 1 2 3 3 6 6 7 8 8 10 11 11 11 10 10 11 11 12 12 12 12 11 11 9 8 8 9 9 10 10 9 9 9 9 11 12 10 10 11 11 11 8 8 8
0 1 0 1 2 1 1 4 2 3 2 3 4 2 4 2 3 7 6 3 5 3 6 4 0 0 1 1 3 3 2 0 1 1 1 1 1 2 1 1 0 1 1 2 4 5 4 4 5 7 7 8 11 13 12 12 11 12 11 12 14 13 13 13 12 12 11 11 10 10 9 9 10 10 10 11 9 8 11 11 10 9 11 9 8 9 10
1 0 0 1 1 1 2 3 6 5 7 6 6 6 7 8 7 8 9 3 4 8 7 4 2 3 0 1 2 1 1 0 1 2 0 1 1 2 1 1 0 1 4 4 5 4 3 6 5 7 7 7 7 10 12 12 13 13 12 13 14 15 13 14 14 13 12 11 10 11 10 9 9 9 8 9 10 9 9 10 10 8 8 10 10 10 10
0 1 1 0 2 4 5 3 1 4 6 7 7 8 8 6 7 8 5 6 4 2 1 1 2 3 1 1 0 1 0 1 2 0 1 1 1 1 1 0 2 3 3 3 3 4 6 4 5 7 8 9 9 9 8 8 10 12 10 9 10 11 11 12 12 12 12 10 11 11 10 9 9 10 11 11 10 7 7 8 9 9 8 9 11 11 11
0 1 3 3 4 4 2 3 1 5 8 7 7 7 4 7 5 8 7 6 2 2 1 2 2 1 1 1 1 1 2 1 3 2 3 3 1 2 3 3 4 6 8 7 6 6 5 4 7 8 8 9 9 9 10 10 11 11 10 9 9 9 8 9 11 12 11 10 10 11 11 11 9 8 7 7 8 8 8 8 9 9 9 8 10 12 12
0 0 1 3 1 3 4 4 3 7 8 8 5 4 2 7 5 8 7 9 3 1 3 1 2 1 1 1 3 2 0 1 0 1 0 2 2 2 3 6 8 8 8 7 7 7 7 6 7 10 11 12 12 12 11 9 9 9 9 9 9 10 9 9 10 11 10 9 11 11 10 9 8 8 7 8 8 8 9 9 8 9 9 8 8 11 13
Wind_Direction
9 6 5 2 1 4 7 11 18 16 0 25 329 322 317 30 239 256 302 358 145 108 343 215 218 234 251 278 269 269 276 289 303 298 323 343 228 260 219 228 210 244 218 270 298 304 198 177 206 195 185 205 207 202 193 191 202 157 213 169 225 105 105 175 277 291 302 308 258 187 172 134 94 183 113 109 156 171 171 171 185 115 149 86 21 97 247
6 4 1 359 359 2 5 6 12 12 25 42 294 260 359 290 310 328 38 93 65 128 220 282 234 266 273 279 286 302 292 300 299 302 319 41 300 278 289 294 179 248 253 219 234 213 48 206 190 212 189 213 214 212 198 187 201 172 209 176 206 196 282 140 135 43 358 309 345 287 330 170 157 166 234 156 146 135 176 140 53 112 204 170 141 196 217
3 2 2 358 356 356 359 359 357 3 6 13 63 96 317 304 267 263 311 60 89 204 215 295 320 310 307 309 304 306 297 260 273 284 287 283 232 305 257 243 315 283 281 267 233 255 164 355 224 189 189 225 196 205 198 196 202 189 185 174 156 168 193 117 151 171 169 186 195 208 210 207 236 146 147 148 157 137 87 218 283 117 258 130 107 98 73
2 0 359 358 356 354 349 344 341 348 352 18 79 265 325 289 87 54 35 110 55 274 269 284 275 294 303 311 285 291 305 309 292 283 279 262 257 224 270 294 281 266 321 334 23 274 209 152 270 205 226 219 205 195 199 195 200 188 178 168 119 153 155 113 154 154 180 199 209 232 128 125 185 223 137 168 95 107 115 111 129 176 193 144 220 147 134
360 359 359 357 354 351 347 338 337 338 345 3 172 261 195 349 117 159 198 180 225 255 247 247 232 245 257 287 310 318 309 304 309 91 48 281 226 250 209 293 20 293 336 314 300 300 340 308 208 221 206 213 214 191 188 191 194 176 177 169 90 74 150 323 117 124 174 184 194 242 126 121 232 168 201 179 155 145 137 168 232 166 111 281 29 147 136
359 359 357 355 352 352 344 338 336 336 327 347 244 260 201 112 256 262 209 166 222 217 273 233 247 253 259 255 290 281 297 311 307 308 209 315 285 149 342 42 224 276 280 249 14 326 347 350 19 317 352 286 335 164 189 177 188 176 174 162 132 136 129 244 89 35 66 87 91 84 74 71 84 38 1 268 179 130 155 204 181 152 153 187 162 169 151
358 358 356 354 352 349 346 344 343 331 316 337 241 286 245 219 265 258 309 181 253 170 224 230 226 250 217 246 224 281 278 288 286 292 306 19 308 164 302 319 350 334 347 89 102 356 43 339 311 59 304 15 349 29 29 352 206 161 154 124 152 93 54 83 109 77 45 32 75 87 96 79 50 25 15 355 284 163 129 74 70 136 239 142 148 146 133
357 357 356 354 352 349 346 346 345 331 325 319 194 225 276 256 340 315 351 240 283 302 335 301 13 320 249 251 244 239 254 286 304 302 298 338 288 311 299 350 335 338 352 46 88 290 152 282 19 336 174 348 34 108 115 254 343 120 169 151 307 104 259 187 95 73 37 18 65 81 95 95 72 27 22 16 9 69 85 108 99 87 73 117 123 125 127
355 357 356 355 353 350 349 348 351 343 337 198 220 243 202 289 245 248 305 313 284 316 8 341 41 323 313 224 277 251 266 260 357 306 270 240 239 272 320 338 305 348 13 40 36 294 269 314 141 311 105 93 293 110 307 338 88 12 29 43 322 78 182 54 75 80 0 334 58 97 93 80 80 43 12 5 349 91 131 116 173 122 140 128 121 123 138
354 355 355 354 354 350 349 350 349 349 54 250 286 286 298 263 229 191 310 315 340 357 311 311 297 259 234 253 274 308 276 284 324 321 288 253 243 242 261 239 129 329 55 53 285 293 277 245 100 64 57 102 74 79 69 44 53 45 81 197 66 109 124 81 96 85 270 278 334 81 68 64 31 347 333 323 340 295 94 48 49 147 137 130 152 188 160
352 353 354 356 355 353 348 349 351 356 342 345 297 290 323 11 329 338 278 248 300 301 313 297 136 252 310 257 284 281 272 280 276 203 278 318 316 264 216 155 133 221 210 230 238 228 234 178 162 88 73 69 61 50 42 38 39 38 67 60 20 54 113 112 117 108 222 289 309 1 59 95 218 281 296 200 209 281 118 99 107 81 69 182 148 136 137
350 351 354 356 356 355 353 350 349 352 11 238 288 278 263 281 281 250 246 62 273 287 285 273 242 264 259 281 273 267 270 268 265 204 239 278 286 276 119 68 85 22 244 241 302 260 208 141 164 138 63 55 59 51 46 39 17 21 43 106 120 91 78 77 86 99 178 301 28 60 162 219 297 352 10 87 80 80 102 79 42 20 105 111 119 132 143
347 349 351 355 357 356 354 350 347 344 341 289 232 251 273 25 326 290 284 292 275 283 309 306 287 259 257 268 276 253 244 256 255 254 244 244 277 250 222 160 170 233 283 318 22 47 66 292 332 61 22 31 29 50 39 30 16 12 36 48 103 105 99 138 48 79 49 48 31 145 224 300 5 14 61 95 96 137 85 49 18 4 127 130 131 137 136
347 348 350 352 355 357 355 351 349 343 330 311 245 247 307 312 297 312 314 1 297 262 270 287 285 294 302 275 243 265 276 309 295 200 245 234 220 262 275 186 216 221 243 150 50 65 33 27 32 18 350 7 6 26 341 15 26 20 15 23 51 116 102 91 83 10 119 109 48 66 314 78 57 70 263 170 146 200 289 142 263 337 275 141 135 134 131
346 347 348 350 351 354 356 353 350 344 337 319 233 234 226 225 241 282 295 298 261 288 250 230 295 312 287 285 315 347 348 324 13 319 275 253 232 228 211 261 313 308 108 70 25 45 112 82 34 49 345 42 288 271 334 25 305 17 17 26 52 360 124 206 106 324 117 128 96 82 326 220 216 228 235 267 204 142 115 95 29 304 302 175 142 141 136
346 347 347 347 347 350 351 353 354 345 344 345 248 237 222 200 208 248 274 256 301 312 277 221 254 285 316 295 269 231 353 340 299 291 350 327 290 319 279 263 282 42 20 80 104 83 43 78 168 91 152 180 240 25 323 341 10 326 8 39 66 47 63 91 107 142 88 86 125 181 176 247 177 201 197 128 128 115 127 64 275 246 224 200 150 143 144
346 346 345 344 345 346 348 349 349 350 347 356 321 271 266 187 182 202 234 250 204 245 245 221 248 269 277 317 15 45 126 79 234 66 326 306 269 273 312 337 320 38 77 73 27 63 40 53 69 117 312 191 99 186 233 36 56 354 335 21 52 52 10 51 67 102 159 137 111 189 193 208 233 177 169 164 126 91 58 162 236 182 190 183 163 150 150
345 345 344 342 342 343 345 347 347 346 347 343 314 276 255 193 195 190 246 240 271 275 256 191 175 179 257 143 232 289 28 48 10 329 223 268 318 15 301 11 6 326 100 80 69 69 75 114 136 160 132 282 134 76 173 197 90 188 86 47 56 35 26 47 144 142 132 110 33 15 307 270 189 181 159 146 140 95 107 201 243 166 172 177 165 158 152
343 343 342 339 340 341 342 345 347 344 343 338 324 291 258 225 214 202 234 254 244 270 277 299 250 236 148 147 155 157 178 231 213 87 313 9 328 284 285 290 99 333 359 123 66 101 122 283 37 121 122 300 18 156 194 69 216 171 88 76 37 5 91 15 84 115 140 152 115 207 238 233 163 171 148 161 125 179 210 236 174 157 163 161 156 153 153
339 340 339 338 338 339 340 342 344 345 345 339 336 280 270 261 218 181 186 221 215 259 287 289 314 339 327 154 138 132 88 7 325 115 110 184 276 2 29 13 324 74 7 60 57 179 105 191 210 111 58 164 208 156 58 283 90 161 166 192 125 196 103 163 143 166 50 46 84 42 229 240 149 142 93 189 151 231 194 122 126 151 150 147 147 148 145
337 337 337 336 337 337 337 340 341 345 348 342 339 320 314 284 188 219 217 195 335 328 302 277 336 329 329 295 163 162 147 171 191 123 223 211 231 85 97 196 225 96 206 137 147 234 152 164 207 169 196 140 223 64 168 143 57 246 147 179 125 200 90 195 247 191 146 152 158 196 225 192 161 157 178 189 201 154 142 130 128 141 145 143 140 144 138
335 334 334 335 335 335 334 336 338 341 345 343 335 303 271 260 231 210 202 195 224 202 228 289 302 283 276 254 197 183 159 160 204 166 152 245 304 169 207 223 239 147 223 113 44 14 9 174 68 106 155 291 29 137 162 79 144 247 15 88 109 225 172 184 154 216 142 193 212 272 318 341 51 107 145 109 145 142 154 143 149 150 155 143 140 145 139
333 332 332 332 332 332 333 332 333 334 340 342 343 186 252 302 311 320 138 194 263 281 281 287 306 294 296 25 299 204 227 176 135 131 144 117 328 303 218 63 329 250 327 105 163 165 201 131 212 160 86 141 148 115 66 124 172 217 100 314 152 22 120 110 86 123 144 66 63 43 44 71 65 50 108 128 117 97 130 134 129 135 136 147 146 142 138
330 331 330 330 330 331 331 330 329 330 334 335 321 276 279 248 269 333 236 211 177 308 313 277 46 357 305 19 340 355 19 17 306 220 153 128 125 320 332 292 238 15 356 248 179 172 209 132 202 121 121 208 99 111 132 89 226 173 95 37 340 256 213 66 113 176 70 30 327 70 100 91 95 93 50 57 97 130 132 128 129 135 134 129 136 137 139
329 329 329 329 329 329 329 329 328 329 330 336 336 230 251 292 232 164 157 313 328 82 249 313 324 260 320 302 321 12 348 322 1 54 65 78 124 138 212 254 179 177 268 271 47 57 38 123 96 69 113 249 116 179 240 108 169 146 83 232 76 351 126 80 84 78 107 175 169 114 89 98 117 123 122 114 111 101 102 115 123 125 124 129 136 135 135
328 328 328 328 328 327 327 327 328 327 330 328 337 308 298 257 286 299 161 105 136 119 359 308 283 306 350 11 7 269 308 24 16 8 13 47 146 185 228 339 14 6 69 56 70 103 116 53 80 106 109 147 96 133 140 196 150 117 124 204 198 170 69 150 171 102 75 74 96 114 84 62 56 73 76 116 128 122 117 121 125 127 127 133 135 138 142
327 328 327 327 326 326 325 325 325 327 328 327 332 268 227 264 256 294 60 240 39 345 27 286 275 299 349 333 296 326 345 18 15 25 14 8 22 25 61 56 62 355 46 22 24 111 64 82 86 42 87 99 94 114 119 40 74 85 85 341 49 65 70 142 102 116 164 174 176 150 131 173 170 134 135 128 125 123 126 126 128 134 139 143 141 140 143
326 326 326 325 324 323 323 322 322 325 327 326 316 297 217 232 243 191 114 118 84 179 226 261 303 290 310 303 298 338 333 16 36 36 22 18 26 36 43 43 56 54 12 65 9 15 26 68 69 252 71 331 57 41 28 120 66 40 27 316 165 127 174 145 149 162 194 213 170 136 83 106 137 146 142 128 128 126 131 135 137 139 141 143 141 141 138
325 324 324 323 322 320 319 318 318 323 327 329 310 327 44 235 283 337 30 79 93 97 149 260 294 340 37 262 303 3 322 12 31 25 43 22 25 25 38 47 53 98 84 70 97 104 98 142 186 84 46 200 95 158 43 49 62 114 231 298 214 226 178 167 144 80 30 131 149 152 138 140 150 145 135 132 131 129 131 135 136 139 142 143 141 145 145
324 322 322 320 317 315 314 313 314 320 329 326 330 37 24 316 231 150 37 56 77 117 55 16 12 261 290 330 305 311 320 332 40 35 40 31 25 16 19 38 21 44 88 119 135 77 233 115 320 312 332 32 118 162 79 163 85 259 283 296 297 89 87 108 160 145 158 151 127 120 113 118 130 136 132 131 133 130 134 138 139 139 141 142 142 146 147
322 321 319 316 313 310 308 308 307 315 335 329 12 47 43 7 292 180 71 39 60 113 164 129 232 275 345 264 257 283 259 285 2 46 352 354 349 342 320 77 24 73 38 357 43 84 84 24 37 330 326 48 107 92 158 116 113 307 298 323 326 140 129 113 35 111 119 115 108 106 109 121 125 112 117 129 133 128 128 131 133 135 139 140 143 145 143
321 319 315 312 309 306 302 300 299 310 301 247 171 168 179 198 245 285 334 6 38 75 110 6 341 352 254 311 278 255 137 355 23 47 341 29 357 11 1 72 65 30 116 89 177 48 41 219 92 331 39 338 73 90 74 83 125 205 335 37 66 102 119 109 105 106 114 120 112 100 106 125 147 143 152 148 133 129 132 136 135 136 139 136 135 133 133
318 315 311 308 305 302 297 292 292 299 257 257 267 276 275 273 275 278 303 348 66 211 142 88 202 235 348 250 309 314 128 35 7 35 313 311 241 41 351 355 9 23 336 75 354 101 216 106 47 48 312 26 82 94 88 92 205 215 174 135 106 109 109 116 121 126 134 140 138 144 161 159 156 136 135 135 134 134 138 140 141 137 134 136 134 128 123
315 312 309 305 301 296 292 286 293 293 275 256 328 279 251 225 251 258 153 119 189 265 70 123 322 342 266 308 54 277 51 117 248 86 48 295 190 73 259 26 352 77 334 87 264 68 345 62 67 140 346 16 40 74 52 5 94 135 124 109 109 101 112 112 119 119 108 73 48 115 129 131 125 126 128 133 136 139 139 139 140 140 142 141 140 137 137
314 311 307 304 298 294 297 296 314 168 227 261 259 243 265 160 162 157 141 115 39 340 13 331 115 43 344 351 42 270 71 83 63 189 134 271 19 165 27 60 327 77 284 87 36 92 67 202 168 64 248 332 43 79 212 176 168 137 118 113 114 110 108 105 94 109 103 104 106 109 117 124 128 136 145 144 145 149 145 145 147 145 143 145 143 140 138
314 310 306 300 301 302 305 108 135 65 44 270 240 292 301 295 281 235 189 195 139 152 150 245 80 199 166 259 321 274 346 74 261 18 205 79 360 349 96 114 64 261 234 76 181 4 78 215 69 60 300 68 228 189 181 163 154 155 142 144 153 134 144 137 136 117 113 120 120 122 123 126 132 142 146 146 141 143 144 145 145 144 141 141 145 143 140
315 308 304 299 297 79 332 224 249 108 357 280 276 281 280 287 311 89 89 81 302 114 167 183 350 244 170 224 251 280 69 183 331 55 342 48 203 284 54 45 122 302 36 7 13 59 292 59 98 96 11 164 253 193 155 160 152 153 157 154 158 119 120 124 129 122 119 123 127 132 136 136 134 143 148 145 149 147 144 154 154 148 148 148 145 144 146
314 308 303 358 32 28 341 331 33 319 327 305 309 297 349 35 270 331 6 44 267 89 307 96 239 246 282 96 262 255 63 266 64 132 304 233 74 316 28 106 216 85 60 233 254 186 47 37 63 114 311 293 290 136 142 149 151 142 144 143 142 133 135 136 138 132 133 137 146 153 150 149 150 158 156 158 153 150 153 143 138 138 140 142 144 141 138
319 312 12 5 73 270 212 261 342 330 315 267 80 81 312 358 65 355 245 224 35 265 270 144 240 215 170 190 270 286 155 165 36 27 118 270 104 299 13 90 296 72 335 20 291 55 69 345 23 43 358 347 114 159 159 143 141 151 152 154 140 142 136 145 149 150 157 165 163 165 164 164 161 162 160 150 147 140 141 139 142 141 140 139 141 141 142
4 13 360 337 338 263 293 304 334 319 315 32 323 104 211 308 101 267 285 77 316 279 109 226 218 190 181 197 193 261 303 74 81 104 170 302 317 143 257 87 263 97 199 134 248 26 113 140 269 83 255 269 205 204 167 154 151 169 154 146 136 143 144 149 152 149 139 141 150 151 143 144 146 157 161 158 151 143 146 147 145 137 137 143 146 145 149
15 343 341 316 289 317 306 318 318 309 30 43 6 355 62 336 276 196 68 340 172 236 200 183 332 351 317 90 94 171 283 89 177 137 113 137 247 78 53 139 235 85 270 229 275 70 72 78 46 162 220 212 185 180 173 152 160 177 161 143 144 145 145 144 145 144 138 142 148 147 152 145 141 150 151 147 139 142 151 151 147 143 139 141 148 155 159
267 249 251 283 286 281 300 310 203 24 355 128 123 274 232 219 312 354 127 139 241 244 308 188 297 203 255 182 195 144 314 207 115 101 100 70 298 104 206 287 13 109 220 239 152 65 78 106 259 272 243 194 187 169 160 167 177 167 159 150 152 150 147 146 150 155 148 152 157 159 158 147 149 153 152 146 144 147 148 151 149 144 145 151 151 149 153
282 266 246 270 300 292 205 355 287 112 132 338 46 350 328 227 224 182 264 267 292 114 260 235 223 184 346 61 31 311 184 235 105 330 72 223 290 54 86 17 58 21 233 304 74 76 116 188 219 245 197 174 177 173 174 172 177 166 160 164 161 161 154 153 156 159 158 153 160 162 162 157 160 160 152 145 142 144 150 159 153 150 146 147 150 155 155
272 177 159 214 298 278 95 296 280 61 326 102 122 198 242 318 306 8 37 265 264 281 254 155 258 136 233 299 146 307 6 357 39 77 34 298 86 329 54 247 214 241 65 41 51 148 218 212 207 212 175 165 170 177 174 171 173 160 155 176 170 158 156 155 153 149 162 157 155 162 157 165 163 153 152 153 154 156 160 163 159 152 153 152 154 161 156
24 9 341 3 314 267 66 302 319 121 200 243 153 196 161 178 244 189 209 249 123 241 299 7 268 170 199 266 43 355 120 192 307 99 238 75 43 350 101 254 250 36 101 238 318 317 345 290 262 138 164 172 180 180 176 176 175 172 169 172 174 167 162 163 167 164 168 167 169 164 173 177 163 164 167 168 168 160 158 164 165 156 158 158 161 154 158
42 167 27 73 327 304 134 239 81 303 285 151 202 198 180 237 184 247 256 228 302 313 322 294 298 317 228 256 136 205 42 90 67 238 166 76 100 255 247 259 72 71 2 42 205 222 218 238 211 193 185 178 175 178 176 177 178 168 154 173 182 173 172 171 174 173 177 174 168 168 175 176 172 165 172 173 170 164 164 163 163 160 161 160 163 162 168
325 292 181 205 108 271 104 166 243 203 192 270 235 192 192 225 216 221 239 275 278 266 275 280 229 195 168 219 129 348 35 86 124 261 75 66 186 254 5 98 252 182 141 260 247 252 266 257 227 200 181 169 168 174 175 177 180 175 174 174 176 176 175 177 176 181 187 170 170 170 167 171 171 166 156 157 171 169 164 162 167 162 161 170 169 161 160
280 267 69 130 233 225 193 251 247 295 244 218 253 255 245 241 320 301 272 235 240 284 280 281 303 306 43 300 87 183 220 335 93 297 156 179 40 43 18 28 305 255 176 172 231 222 229 244 206 189 194 178 167 169 175 178 182 178 172 173 178 176 177 178 179 184 180 174 175 173 170 167 165 162 155 159 163 174 169 166 167 163 163 161 156 160 164
212 276 147 222 239 290 266 266 357 321 293 332 335 342 346 341 302 280 280 257 253 253 228 167 192 97 128 252 101 88 248 296 112 238 29 39 106 203 143 218 213 305 270 186 216 217 221 230 204 172 166 168 179 174 178 179 178 179 176 174 178 178 175 176 178 176 172 170 170 169 172 170 164 162 157 155 161 180 180 170 164 165 162 159 164 167 169
137 312 335 6 346 300 271 305 20 302 319 340 2 337 327 320 304 293 293 287 257 177 60 349 48 97 203 104 330 12 248 228 159 52 69 138 194 184 74 313 228 193 254 253 231 242 240 227 156 163 181 182 180 174 167 176 178 180 180 172 168 170 175 172 170 169 171 168 167 167 166 163 168 168 168 170 170 169 174 176 175 176 168 162 165 170 173
262 144 233 173 177 235 21 337 318 311 319 314 317 306 318 297 298 298 320 291 272 53 45 181 214 105 86 39 65 57 248 190 82 160 159 196 203 118 167 200 239 216 231 232 224 237 232 199 180 184 178 182 180 180 176 174 176 180 177 172 168 166 169 170 167 167 171 169 166 161 168 177 177 170 166 154 154 162 176 187 187 186 175 164 170 171 175
120 260 266 292 297 273 231 247 266 246 246 259 276 260 306 296 305 298 320 317 317 152 241 228 106 77 75 173 219 194 21 43 104 79 67 276 151 146 213 199 232 232 227 249 259 247 233 211 193 182 179 178 182 185 180 173 171 171 174 172 167 164 169 172 170 169 169 169 171 171 174 173 167 167 160 157 159 166 179 193 201 194 184 168 174 179 176